JILIN-01 GAOFEN 2B (44836 NORAD) Tracking and Keplerian Element Data

This shows tracking and keplerian element data for the satellite.

Feedback or suggestion? Click here.




ElementValue
Catalog44836
NameJILIN-01 GAOFEN 2B
Epoch Orbit711
Epoch Day23.19241932
Epoch Year2020
RAAN92.2264
Inclination97.532
Eccentricity0.0012756
Argument of Perigee108.9865
Mean Anonmoly336.0152
Mean Motion15.09140993
Decay Rate6.61E-06
L11 44836U 19086A 20023.19241932 .00000661 00000-0 45536-4 0 9997
L22 44836 97.5320 92.2264 0012756 108.9865 336.0152 15.09140993 7116

Live tracking and technical data element details for JILIN-01 GAOFEN 2B (NORAD 44836). JILIN-01 GAOFEN 2B can be tracked NOW for your location showing map with azimuth and elevation plus other details from your city location.

Track the satellite on the map from your city or location and see movement details for azimuth, elevation, latitude, longitude, range, height, and movement on the map or in text.







IsCatalogInMostPopularTable: catalog: 44836, numindb: 11
Update: records affected: 1



GetName: 44836 JILIN-01 GAOFEN 2B

Hit Count: updated at: Fri, 24 Jan 2020 15:08:16 GMT